Regional Weather Roundup
Issued by NWS

Home | Current Version | Previous Version | Graphics & Text | Print | Product List | Glossary On
Versions: 1 2 3 4 5 6 7 8 9 10 11 12 13 14 15 16 17 18 19 20 21 22 23 24 25 26 27 28 29 30 31 32 33 34 35 36 37 38 39 40 41 42 43 44 45 46 47 48 49 50
000
ASUS43 KDMX 011407
RWRIA

WEATHER ROUNDUP FOR IOWA
NATIONAL WEATHER SERVICE DES MOINES IA
900 AM CDT WED APR 01 2015

NOTE: "FAIR" INDICATES FEW OR NO CLOUDS BELOW 12,000 FEET WITH NO
SIGNIFICANT WEATHER AND/OR OBSTRUCTIONS TO VISIBILITY.

* - THESE STATIONS ARE NOT NWS STATIONS...THUS NOT UNDER NWS
QUALITY CONTROL.  THEY ALSO DO NOT REPORT WEATHER SUCH
AS PRECIPITATION OR FOG.

IAZ001>003-012>014-020>022-031>034-043>046-011500-
   NORTHWEST IOWA

CITY           SKY/WX    TMP DP  RH WIND       PRES   REMARKS
CARROLL *      SUNNY     61  34  36 S23       29.79F
CHEROKEE *     MOSUNNY   61  32  33 S21G26    29.75S
DENISON *      SUNNY     59  32  36 S18G26    29.78S
LE MARS *      SUNNY     61  34  36 S21G30    29.71F
ORANGE CITY *  SUNNY     61  30  31 S21G31    29.71F
SHELDON *      SUNNY     59  34  38 S22G30    29.69F
SIOUX CITY     SUNNY     63  33  32 SE18G29   29.73F
SPENCER        MOSUNNY   60  34  37 S23G30    29.73F
STORM LAKE *   SUNNY     61  32  33 S26G38    29.76F
$$

IAZ055>058-069>071-079>083-090>094-011500-
   SOUTHWEST IOWA

CITY           SKY/WX    TMP DP  RH WIND       PRES   REMARKS
ATLANTIC *     SUNNY     59  34  38 S18G25    29.83S
AUDUBON *      SUNNY     61  32  33 S15       29.83S
CLARINDA *     SUNNY     61  37  41 S16G22    29.86F
COUNCIL BLFS * SUNNY     61  34  36 S20G26    29.80F
CRESTON *      SUNNY     59  37  44 S16       29.86S
HARLAN  *      SUNNY     59  34  38 S17G23    29.84F
LAMONI         SUNNY     56  36  47 S13G21    29.89S
RED OAK *      SUNNY     61  34  36 S18G28    29.83F
SHENANDOAH *   SUNNY     61  34  36 SE16      29.83F
$$

IAZ047>049-059>061-072>074-084-011500-
   CENTRAL IOWA

CITY           SKY/WX    TMP DP  RH WIND       PRES   REMARKS
AMES           SUNNY     60  35  39 S16       29.85F
ANKENY *       SUNNY     63  34  34 S17G25    29.86F
CHARITON *     SUNNY     61  36  39 S20       29.89F
DES MOINES     MOSUNNY   63  33  32 S15       29.86F
GRINNELL*      SUNNY     57  36  44 S14       29.90F
KNOXVILLE *    SUNNY     61  34  36 S14G21    29.87F
MARSHALLTOWN   SUNNY     58  35  42 S14       29.86F
PELLA *        SUNNY     61  39  44 S13       29.90F
PERRY *          N/A     61  36  39 S22       29.82F
$$

IAZ004>006-015-016-023>025-035-036-011500-
   NORTH CENTRAL IOWA

CITY           SKY/WX    TMP DP  RH WIND       PRES   REMARKS
ALGONA *       SUNNY     54  36  50 S18G24    29.78F
CLARION *      SUNNY     55  37  50 S20G26    29.80F
ESTHERVILLE    MOSUNNY   53  35  50 S17       29.74F
FORT DODGE *   MOSUNNY   57  36  44 S17G25    29.81S
MASON CITY     SUNNY     51  37  58 S14       29.83F
FOREST CITY *  SUNNY     50  36  57 S9        29.80F
IOWA FALLS *     N/A     57  36  44 S20       29.85F
$$

IAZ007>011-017>019-026>030-037>042-050>054-066-011500-
   NORTHEAST IOWA

CITY           SKY/WX    TMP DP  RH WIND       PRES   REMARKS
CEDAR RAPIDS   SUNNY     54  35  48 S12       29.92S
CHARLES CITY * SUNNY     52  36  54 S16       29.86F
CLINTON *      SUNNY     52  36  54 SE10      30.00F
DECORAH *      SUNNY     52  34  50 S13       29.88F
DUBUQUE        SUNNY     53  33  46 S10       29.95F
MONTICELLO *   SUNNY     54  36  50 SE8       29.94F
OELWEIN *      SUNNY     54  36  50 S14       29.91S
WATERLOO       SUNNY     53  35  50 S10       29.88F
$$

IAZ064-065-067-068-078-011500-
   EAST CENTRAL IOWA

CITY           SKY/WX    TMP DP  RH WIND       PRES   REMARKS
DAVENPORT      SUNNY     57  33  40 S12       29.97F
IOWA CITY      SUNNY     51  37  58 SE6       29.95F
MT. PLEASANT * SUNNY     57  36  44 S14       29.95S
MUSCATINE *    SUNNY     50  37  62 CALM      29.96F
QUAD CITIES    SUNNY     58  34  40 S6        29.96F
$$

IAZ062-063-075>077-085>089-095>099-011500-
   SOUTHEAST IOWA

CITY           SKY/WX    TMP DP  RH WIND       PRES   REMARKS
BURLINGTON     SUNNY     58  37  45 SW12      29.95F
FAIRFIELD *    SUNNY     61  34  36 S14       29.93S
FORT MADISON * SUNNY     59  37  44 S12       29.96F
KEOKUK *       SUNNY     59  37  44 S12       29.95F
OSKALOOSA *      N/A     61  34  36 S16       29.91F
CENTERVILLE *  SUNNY     61  36  39 S9        29.93S
OTTUMWA        SUNNY     61  35  37 S15       29.91R
WASHINGTON *   SUNNY     57  37  47 S13       29.93F
$$

ABBREVIATIONS USED IN REMARKS
   TC - TEMPERATURES IN CELSIUS
  WCI - WIND CHILL INDEX
   HX - HEAT INDEX
  VSB - VISIBILITY
$$




USA.gov is the U.S. government's official web portal to all federal, state and local government web resources and services.